This is the latest recevied weather packets stored in our database for station/object VK4HIT-13. If no packets are shown the sender has not sent any weather packets the latest 1 day(s).
| Time | Temp. | Humidity | Pressure | Rain* | Wind** | Luminosity | Snow |
|---|---|---|---|---|---|---|---|
| 1778046869 | 23.89° C | 70% | 1015.4 hPa | 0 mm | 1.34 m/s, 29° | - | - |
| 1778046569 | 23.89° C | 71% | 1015.5 hPa | 0 mm | 1.79 m/s, 28° | - | - |
| 1778046269 | 23.89° C | 71% | 1015.5 hPa | 0 mm | 2.24 m/s, 22° | - | - |
| 1778045969 | 24.44° C | 70% | 1015.4 hPa | 0 mm | 1.79 m/s, 11° | - | - |
| 1778045669 | 24.44° C | 69% | 1015.5 hPa | 0 mm | 1.34 m/s, 19° | - | - |
| 1778045369 | 25° C | 68% | 1015.3 hPa | 0 mm | 2.24 m/s, 0° | - | - |
| 1778045069 | 25° C | 66% | 1015.4 hPa | 0 mm | 1.79 m/s, 19° | - | - |
| 1778044769 | 25° C | 67% | 1015.4 hPa | 0 mm | 1.79 m/s, 22° | - | - |
| 1778044469 | 24.44° C | 68% | 1015.4 hPa | 0 mm | 2.68 m/s, 26° | - | - |
| 1778044169 | 24.44° C | 68% | 1015.4 hPa | 0 mm | 2.68 m/s, 24° | - | - |
| 1778043869 | 24.44° C | 67% | 1015.5 hPa | 0 mm | 2.68 m/s, 24° | - | - |
| 1778043569 | 24.44° C | 67% | 1015.4 hPa | 0 mm | 3.13 m/s, 14° | - | - |
| 1778043269 | 25° C | 66% | 1015.5 hPa | 0 mm | 1.79 m/s, 24° | - | - |
| 1778042969 | 25° C | 66% | 1015.5 hPa | 0 mm | 0.89 m/s, 24° | - | - |
| 1778042669 | 25° C | 66% | 1015.6 hPa | 0 mm | 1.34 m/s, 23° | - | - |
| 1778042369 | 25.56° C | 65% | 1015.5 hPa | 0 mm | 1.34 m/s, 20° | - | - |
| 1778042069 | 25.56° C | 65% | 1015.5 hPa | 0 mm | 1.34 m/s, 19° | - | - |
| 1778041769 | 25.56° C | 65% | 1015.6 hPa | 0 mm | 0.89 m/s, 24° | - | - |
| 1778041471 | 25.56° C | 65% | 1015.4 hPa | 0 mm | 0.45 m/s, 15° | - | - |
| 1778041169 | 25° C | 67% | 1015.5 hPa | 0 mm | 0.45 m/s, 22° | - | - |
| 1778040869 | 25° C | 66% | 1015.7 hPa | 0 mm | 0.89 m/s, 19° | - | - |
| 1778040569 | 25° C | 66% | 1015.6 hPa | 0 mm | 0.89 m/s, 23° | - | - |
| 1778040269 | 25° C | 66% | 1015.6 hPa | 0 mm | 0.89 m/s, 26° | - | - |
| 1778039969 | 25° C | 66% | 1015.6 hPa | 0 mm | 1.34 m/s, 52° | - | - |
| 1778039669 | 25° C | 66% | 1015.7 hPa | 0 mm | 1.34 m/s, 22° | - | - |
* Rain latest hour (hover to see other rain measurements)
** Current wind speed in m/s (hover to see current wind gust speed)